Florø

Airport
ICAO code: 
ENFL
Summary
ICAO Region: 
EUR
Territory: 
Location: 
Florø, Sogn og Fjordane,
Elevation: 
37 ft
Coordinates: 
Aerial View: 
61° 35' 0.957" N, 5° 1' 28.993" E
Airport BS: 
Non Avian Wildlife Hazards to Aircraft
Airport WX: 
Low Level Turbulence
Metar
Observation
ENFL 262220Z 11015KT 8000 RA FEW008 SCT013 BKN018 03/02 Q0993
Station
Floro
Date/Time
2022-01-26 22:20:00
Wind direction
110°
Wind speed
15 kts
Lowest cloud amount
few clouds
Temperature
3°C
Dew point
2°C
Humidity
93%
QNH
993 hPa
Weather condition
n/a

Description

Airport serving the city of Florø, western Norway. The airport also has a heliport, used to transport personnel to oil platforms in the North Sea.

Climatology

Temperate Marine climate/Oceanic climate (Köppen climate classification Cfb). Moderately cool summer and comparatively warm winter with a temperature range of only 14°C.

Runways

Designator Length Width Surface Rops
7/25 1199 30 ASP No/No
Airport map: 
Aerial View: 

SKYbrary Partners:

Safety knowledge contributed by: